Weather History for KJBR - April, 2014

Change the Weather History Date:

Sunday, April 6, 2014

  Actual Average Record
Temperature  
Mean Temperature 49 °F 57 °F  
Max Temperature 58 °F 67 °F 89 °F (1978)
Min Temperature 40 °F 47 °F 30 °F (1982)
Degree Days  
Heating Degree Days 16 9  
Month to date heating degree days 50 58  
Since 1 July heating degree days 3946 3478  
Cooling Degree Days 0 1  
Month to date cooling degree days 6 6  
Year to date cooling degree days 6 12  
Moisture  
Dew Point 39 °F    
Average Humidity 63    
Maximum Humidity 83    
Minimum Humidity 43    
Precipitation  
Precipitation 0.04 in 0.13 in 3.01 in (1928)
Month to date precipitation 1.57 0.89  
Year to date precipitation 11.29 12.54  
Snow  
Snow 0.00 in 0.00 in T in (1971)
Month to date snowfall 0.0 0.0  
Since 1 July snowfall 5.2 4.8  
Snow Depth 0.00 in    
Sea Level Pressure  
Sea Level Pressure 29.96 in    
Wind  
Wind Speed 9 mph (ENE)    
Max Wind Speed 15 mph    
Max Gust Speed 18 mph    
Visibility 10 miles    
Events Rain    
T = Trace of Precipitation, MM = Missing Value Source: NWS Daily Summary

Daily Weather History Graph

Daily Weather History Graph

Search for Another Location

Airport or City:

Trip Planner

Search our weather history database for the weather conditions in past years. The results will help you decide how hot, cold, wet, or windy it might be!

Date:

Astronomy

Apr. 06, 2014 Rise Set
Actual Time 6:41 AM CDT 7:28 PM CDT
Civil Twilight 6:15 AM CDT 7:54 PM CDT
Nautical Twilight 5:45 AM CDT 8:25 PM CDT
Astronomical Twilight 5:13 AM CDT 8:56 PM CDT
Moon 11:49 AM CDT 1:18 AM CDT
Length of Visible Light 13h 38m
Length of Day
12h 46m
Waxing Crescent, 44% of the Moon is Illuminated
Apr 6
Waxing Crescent
Apr 7
First Quarter
Apr 15
Full
Apr 22
Last Quarter
Apr 29
New

Hourly Weather History & Observations

Time (CDT) Temp. Windchill Dew Point Humidity Pressure Visibility Wind Dir Wind Speed Gust Speed Precip Events Conditions
12:53 AM 42.1 °F - 36.0 °F 79% 30.10 in 10.0 mi Calm Calm - N/A   Clear
1:53 AM 42.1 °F 39.2 °F 36.0 °F 79% 30.09 in 10.0 mi NE 4.6 mph - N/A   Clear
2:53 AM 44.1 °F 40.8 °F 36.0 °F 73% 30.09 in 10.0 mi NNE 5.8 mph - N/A   Clear
3:53 AM 45.0 °F 39.3 °F 35.1 °F 68% 30.06 in 10.0 mi NE 11.5 mph - N/A   Clear
4:53 AM 45.0 °F 39.7 °F 36.0 °F 71% 30.06 in 10.0 mi NE 10.4 mph - N/A   Clear
5:53 AM 44.1 °F 40.1 °F 36.0 °F 73% 30.06 in 10.0 mi NE 6.9 mph - N/A   Clear
6:53 AM 44.1 °F 38.6 °F 37.0 °F 76% 30.05 in 10.0 mi ENE 10.4 mph - N/A   Mostly Cloudy
7:53 AM 46.0 °F 41.4 °F 37.0 °F 71% 30.05 in 10.0 mi NE 9.2 mph - N/A   Partly Cloudy
8:53 AM 48.0 °F - 37.9 °F 68% 30.02 in 10.0 mi ENE 12.7 mph - N/A   Clear
9:53 AM 53.1 °F - 39.0 °F 59% 30.06 in 10.0 mi East 6.9 mph - N/A   Clear
10:53 AM 55.0 °F - 37.9 °F 53% 30.01 in 10.0 mi East 8.1 mph - N/A   Clear
11:53 AM 57.9 °F - 37.9 °F 47% 29.98 in 10.0 mi East 12.7 mph - N/A   Clear
12:53 PM 55.9 °F - 37.0 °F 49% 29.98 in 10.0 mi East 9.2 mph - N/A   Clear
1:53 PM 57.0 °F - 37.0 °F 47% 29.99 in 10.0 mi East 6.9 mph - N/A   Clear
2:53 PM 57.0 °F - 37.9 °F 49% 29.92 in 10.0 mi ENE 8.1 mph - N/A   Clear
3:53 PM 57.0 °F - 36.0 °F 45% 29.89 in 10.0 mi NNE 6.9 mph - N/A   Overcast
4:53 PM 57.0 °F - 37.0 °F 47% 29.89 in 10.0 mi NNE 6.9 mph - N/A   Overcast
5:53 PM 54.0 °F - 41.0 °F 62% 29.88 in 10.0 mi NE 4.6 mph - 0.00 in Rain Light Rain
6:53 PM 51.1 °F - 46.0 °F 83% 29.84 in 8.0 mi NE 9.2 mph - 0.02 in Rain Light Rain
7:53 PM 52.0 °F - 43.0 °F 71% 29.83 in 10.0 mi NE 8.1 mph - 0.00 in   Overcast
8:53 PM 52.0 °F - 43.0 °F 71% 29.81 in 10.0 mi NE 8.1 mph - N/A   Overcast
9:53 PM 52.0 °F - 43.0 °F 71% 29.83 in 10.0 mi East 12.7 mph 18.4 mph 0.01 in   Overcast
10:53 PM 48.9 °F - 45.0 °F 86% 29.83 in 6.0 mi East 9.2 mph - 0.00 in Rain Light Rain
11:22 PM 48.2 °F - 46.4 °F 93% 29.80 in 5.0 mi ENE 11.5 mph - 0.01 in Rain Light Rain
11:53 PM 48.0 °F - 46.0 °F 93% 29.77 in 9.0 mi NE 11.5 mph - 0.01 in   Overcast